This is the latest recevied weather packets stored in our database for station/object OK3MS-5. If no packets are shown the sender has not sent any weather packets the latest 10 day(s).
| Time | Temp. | Humidity | Pressure | Rain* | Wind** | Luminosity | Snow |
|---|---|---|---|---|---|---|---|
| 1787815204 | 20° C | 69% | 1016.4 hPa | 0 mm | - | 303 W/m² | - |
| 1787814904 | 19.44° C | 71% | 1016.5 hPa | 0 mm | - | 290 W/m² | - |
| 1787814604 | 18.89° C | 73% | 1016.6 hPa | 0 mm | - | 275 W/m² | - |
| 1787814306 | 18.89° C | 74% | 1016.7 hPa | 0 mm | - | 262 W/m² | - |
| 1787814004 | 18.89° C | 74% | 1016.8 hPa | 0 mm | - | 247 W/m² | - |
| 1787813704 | 18.89° C | 74% | 1016.9 hPa | 0 mm | - | 232 W/m² | - |
| 1787813404 | 18.33° C | 74% | 1017 hPa | 0 mm | - | 220 W/m² | - |
| 1787813105 | 18.33° C | 74% | 1017.2 hPa | 0 mm | - | 206 W/m² | - |
| 1787812803 | 18.33° C | 75% | 1017.3 hPa | 0 mm | - | 193 W/m² | - |
| 1787812503 | 17.78° C | 75% | 1017.4 hPa | 0 mm | - | 181 W/m² | - |
| 1787812203 | 17.78° C | 76% | 1017.4 hPa | 0 mm | - | 168 W/m² | - |
| 1787811903 | 17.78° C | 77% | 1017.4 hPa | 0 mm | - | 155 W/m² | - |
| 1787811603 | 17.78° C | 78% | 1017.4 hPa | 0 mm | - | 143 W/m² | - |
| 1787811303 | 17.22° C | 79% | 1017.5 hPa | 0 mm | - | 130 W/m² | - |
| 1787811005 | 17.22° C | 79% | 1017.5 hPa | 0 mm | - | 115 W/m² | - |
| 1787810705 | 17.22° C | 79% | 1017.5 hPa | 0 mm | - | 72 W/m² | - |
| 1787810403 | 17.22° C | 79% | 1017.4 hPa | 0 mm | - | 91 W/m² | - |
| 1787810104 | 16.67° C | 79% | 1017.6 hPa | 0 mm | - | 83 W/m² | - |
| 1787809802 | 15.56° C | 83% | 1017.7 hPa | 0 mm | - | 50 W/m² | - |
| 1787809503 | 15.56° C | 85% | 1017.7 hPa | 0 mm | - | 44 W/m² | - |
| 1787809203 | 15° C | 85% | 1017.8 hPa | 0 mm | - | 41 W/m² | - |
| 1787808906 | 14.44° C | 87% | 1017.8 hPa | 0 mm | - | 38 W/m² | - |
| 1787808604 | 14.44° C | 87% | 1017.7 hPa | 0 mm | - | 38 W/m² | - |
| 1787808303 | 14.44° C | 87% | 1017.7 hPa | 0 mm | - | 37 W/m² | - |
| 1787808002 | 14.44° C | 87% | 1017.5 hPa | 0 mm | - | 34 W/m² | - |
* Rain latest hour (hover to see other rain measurements)
** Current wind speed in m/s (hover to see current wind gust speed)